Temp
-13 -13 -13 -13 -13 -13 -12 -12 -12 -12 -12 -12 -12 -12 -11 -11 -11 -11 -11 -11 -11 -11 -11 -11 -11 -11 -11 -11 -14 -12 -12 -12 -13 -14 -14 -14 -14 -14 -14 -13 -13 -12 -12 -12 -13 -13 -13
-13 -13 -13 -13 -13 -13 -13 -13 -13 -13 -12 -12 -13 -13 -13 -12 -12 -12 -12 -12 -11 -12 -12 -12 -12 -11 -11 -14 -13 -13 -14 -14 -14 -14 -14 -14 -14 -15 -14 -14 -14 -14 -13 -13 -13 -13 -13
-14 -14 -14 -14 -14 -14 -14 -14 -14 -14 -14 -14 -13 -13 -13 -13 -13 -13 -13 -12 -12 -12 -13 -13 -12 -12 -12 -14 -13 -14 -14 -14 -14 -14 -14 -14 -15 -15 -15 -15 -14 -14 -13 -12 -13 -13 -13
-15 -15 -15 -15 -15 -15 -15 -15 -15 -15 -15 -15 -15 -15 -14 -14 -14 -14 -14 -14 -13 -14 -14 -13 -13 -13 -13 -14 -14 -14 -14 -14 -14 -14 -14 -14 -15 -15 -14 -15 -14 -14 -14 -13 -13 -13 -13
-16 -16 -16 -16 -16 -16 -16 -16 -16 -16 -16 -16 -16 -15 -15 -15 -15 -15 -15 -15 -14 -15 -15 -15 -14 -15 -15 -15 -15 -14 -14 -14 -14 -14 -14 -14 -14 -15 -15 -15 -14 -14 -13 -13 -13 -13 -14
-17 -17 -17 -17 -17 -17 -17 -17 -17 -17 -18 -17 -17 -16 -16 -16 -16 -16 -17 -16 -15 -16 -16 -16 -15 -15 -16 -15 -15 -15 -15 -14 -14 -14 -14 -15 -15 -15 -15 -16 -15 -14 -14 -14 -13 -14 -14
-18 -18 -18 -18 -18 -18 -18 -18 -18 -18 -18 -17 -17 -17 -17 -17 -17 -17 -17 -17 -16 -16 -17 -16 -17 -16 -16 -16 -15 -15 -15 -15 -15 -14 -15 -15 -14 -14 -15 -15 -15 -15 -15 -15 -15 -14 -14
-18 -18 -18 -18 -18 -18 -18 -18 -18 -18 -18 -18 -18 -18 -18 -18 -17 -17 -17 -18 -18 -16 -15 -17 -17 -17 -16 -16 -16 -16 -15 -15 -15 -15 -15 -15 -14 -15 -16 -16 -16 -15 -15 -15 -15 -15 -15
-19 -19 -19 -18 -19 -18 -18 -19 -18 -18 -18 -18 -18 -18 -18 -18 -18 -18 -18 -18 -18 -18 -17 -18 -17 -17 -17 -17 -16 -16 -16 -15 -15 -15 -15 -15 -15 -16 -15 -16 -16 -15 -15 -15 -15 -15 -15
-19 -19 -19 -19 -19 -19 -19 -19 -19 -19 -19 -19 -19 -19 -19 -19 -18 -19 -19 -19 -18 -18 -18 -18 -18 -18 -17 -17 -16 -16 -16 -15 -15 -15 -15 -15 -16 -16 -15 -15 -16 -15 -15 -16 -15 -15 -15
-20 -20 -20 -20 -20 -20 -20 -19 -19 -20 -20 -20 -20 -20 -20 -20 -19 -20 -19 -19 -19 -19 -19 -18 -17 -18 -18 -17 -17 -16 -16 -16 -15 -16 -16 -16 -16 -15 -15 -15 -16 -14 -15 -15 -16 -15 -15
-21 -21 -21 -21 -21 -21 -21 -21 -21 -21 -21 -21 -21 -21 -21 -21 -21 -20 -20 -20 -20 -20 -19 -19 -18 -18 -18 -18 -17 -16 -17 -16 -16 -16 -15 -17 -16 -15 -15 -16 -15 -15 -15 -16 -16 -16 -14
-22 -22 -22 -22 -22 -22 -23 -23 -23 -23 -23 -23 -23 -22 -22 -21 -21 -21 -21 -21 -21 -20 -20 -21 -19 -19 -19 -19 -18 -17 -17 -17 -16 -16 -16 -17 -16 -15 -16 -16 -15 -14 -15 -16 -15 -14 -13
-23 -23 -24 -24 -25 -25 -25 -25 -25 -26 -25 -25 -24 -23 -23 -22 -22 -22 -22 -21 -21 -20 -20 -21 -20 -19 -19 -19 -19 -19 -17 -17 -17 -16 -17 -17 -16 -16 -16 -16 -15 -15 -15 -15 -16 -15 -13
-24 -25 -26 -26 -26 -26 -26 -26 -26 -26 -26 -26 -26 -25 -24 -23 -23 -23 -22 -22 -21 -21 -21 -21 -20 -19 -19 -20 -19 -20 -19 -18 -17 -17 -17 -18 -18 -17 -17 -17 -16 -15 -14 -14 -14 -14 -14
-25 -26 -26 -26 -26 -27 -27 -27 -27 -27 -27 -26 -26 -26 -25 -24 -24 -24 -23 -21 -21 -22 -21 -20 -20 -20 -20 -21 -22 -20 -20 -20 -18 -18 -17 -18 -18 -17 -17 -17 -16 -15 -15 -15 -15 -15 -14
-25 -26 -26 -26 -27 -27 -27 -27 -27 -27 -28 -28 -27 -26 -26 -25 -25 -24 -23 -22 -22 -22 -22 -21 -21 -20 -21 -21 -21 -21 -19 -20 -19 -19 -19 -18 -18 -18 -18 -17 -17 -16 -15 -15 -15 -15 -15
-26 -26 -26 -27 -27 -27 -27 -28 -28 -29 -29 -28 -28 -27 -26 -26 -26 -24 -23 -23 -23 -22 -22 -22 -21 -21 -21 -21 -21 -21 -20 -20 -20 -19 -19 -18 -18 -18 -18 -17 -16 -16 -15 -15 -15 -15 -15
-27 -26 -27 -28 -27 -28 -28 -29 -29 -31 -32 -31 -30 -28 -27 -27 -26 -25 -24 -23 -23 -23 -22 -22 -22 -22 -22 -21 -22 -21 -21 -21 -20 -19 -19 -19 -18 -18 -18 -17 -17 -16 -16 -15 -15 -16 -15
-26 -27 -27 -28 -28 -28 -29 -30 -31 -32 -32 -30 -30 -28 -27 -27 -26 -25 -25 -24 -24 -23 -23 -23 -23 -22 -22 -22 -22 -21 -22 -22 -20 -19 -19 -18 -19 -19 -18 -17 -17 -17 -16 -16 -15 -15 -16
-27 -27 -27 -28 -28 -29 -30 -31 -33 -33 -32 -31 -31 -29 -28 -27 -26 -25 -25 -25 -24 -24 -24 -24 -23 -23 -23 -23 -22 -22 -23 -23 -22 -20 -20 -19 -19 -19 -18 -17 -17 -16 -17 -16 -16 -16 -16
-27 -27 -27 -28 -29 -30 -31 -32 -32 -32 -32 -31 -30 -29 -28 -27 -27 -26 -26 -25 -25 -24 -24 -24 -24 -24 -24 -23 -24 -25 -24 -24 -23 -20 -21 -20 -19 -19 -18 -18 -17 -17 -17 -17 -17 -16 -17
-26 -27 -27 -28 -29 -30 -32 -32 -32 -32 -32 -31 -29 -29 -28 -27 -27 -26 -26 -26 -25 -25 -25 -25 -26 -25 -24 -25 -23 -24 -25 -24 -22 -22 -20 -20 -20 -19 -19 -18 -18 -18 -18 -17 -17 -17 -17
-26 -27 -27 -28 -29 -31 -31 -32 -32 -32 -31 -30 -30 -29 -28 -28 -27 -26 -27 -27 -25 -25 -25 -25 -25 -25 -25 -25 -25 -25 -25 -24 -23 -21 -20 -20 -20 -20 -19 -18 -18 -18 -17 -17 -17 -16 -16
-26 -27 -27 -28 -29 -30 -30 -30 -31 -31 -30 -29 -30 -29 -28 -28 -27 -27 -27 -27 -27 -26 -25 -26 -26 -25 -25 -25 -25 -25 -25 -24 -23 -22 -21 -20 -20 -20 -19 -19 -18 -18 -17 -17 -17 -17 -17
-26 -27 -27 -28 -28 -29 -30 -30 -29 -29 -29 -29 -29 -29 -28 -28 -27 -27 -27 -27 -28 -27 -27 -26 -26 -25 -25 -25 -26 -25 -25 -24 -24 -22 -22 -22 -20 -19 -20 -19 -18 -18 -18 -18 -17 -17 -16
-27 -27 -27 -27 -28 -28 -29 -29 -29 -29 -29 -29 -29 -29 -28 -27 -28 -28 -28 -28 -28 -28 -27 -26 -26 -26 -26 -25 -25 -25 -24 -24 -23 -22 -22 -22 -21 -20 -20 -20 -19 -18 -18 -17 -17 -17 -17
-27 -27 -27 -27 -27 -28 -28 -28 -29 -29 -28 -28 -29 -28 -28 -28 -28 -28 -28 -28 -28 -27 -27 -26 -25 -26 -25 -26 -25 -24 -24 -23 -23 -22 -22 -22 -22 -20 -20 -20 -19 -19 -19 -18 -18 -18 -18
-27 -27 -27 -27 -27 -27 -27 -28 -28 -28 -28 -28 -28 -28 -28 -28 -28 -28 -28 -28 -28 -27 -27 -26 -26 -25 -26 -25 -25 -24 -24 -23 -23 -23 -22 -22 -22 -22 -21 -21 -20 -20 -20 -19 -19 -19 -18
Height
5728 5728 5726 5727 5724 5725 5725 5724 5722 5720 5722 5724 5724 5724 5723 5725 5725 5724 5725 5726 5727 5727 5727 5727 5725 5725 5725 5724 5723 5722 5722 5723 5723 5725 5725 5725 5725 5726 5728 5733 5734 5735 5740 5744 5748 5749 5750
5714 5713 5712 5713 5713 5712 5711 5712 5711 5709 5708 5709 5711 5712 5713 5712 5713 5714 5714 5715 5716 5716 5715 5714 5715 5716 5717 5716 5716 5714 5714 5715 5715 5716 5716 5716 5718 5719 5721 5721 5723 5728 5732 5735 5739 5742 5744
5702 5701 5699 5699 5699 5699 5699 5698 5699 5700 5697 5697 5697 5699 5701 5702 5701 5701 5702 5704 5705 5704 5703 5703 5705 5706 5708 5704 5706 5707 5708 5708 5708 5706 5706 5707 5708 5708 5711 5713 5718 5721 5722 5726 5731 5737 5738
5689 5688 5687 5685 5686 5685 5685 5685 5684 5686 5686 5685 5686 5687 5688 5690 5691 5690 5690 5691 5693 5693 5692 5693 5695 5696 5699 5697 5698 5698 5698 5699 5698 5697 5696 5695 5695 5697 5700 5705 5708 5710 5715 5719 5729 5731 5734
5675 5674 5674 5673 5671 5671 5671 5671 5671 5671 5673 5673 5675 5676 5676 5678 5678 5678 5678 5680 5682 5682 5683 5683 5684 5687 5689 5690 5689 5688 5690 5690 5688 5686 5685 5682 5683 5687 5689 5695 5700 5705 5709 5714 5723 5725 5728
5662 5660 5660 5660 5660 5658 5658 5659 5659 5658 5660 5662 5662 5666 5667 5666 5668 5668 5666 5668 5671 5672 5673 5673 5675 5679 5680 5679 5678 5679 5681 5680 5679 5677 5676 5673 5672 5677 5680 5684 5692 5703 5705 5710 5715 5721 5721
5650 5650 5648 5647 5647 5646 5645 5646 5647 5647 5648 5649 5651 5652 5655 5655 5654 5655 5657 5658 5661 5662 5664 5664 5664 5670 5669 5669 5672 5672 5671 5673 5670 5667 5665 5662 5664 5666 5672 5681 5688 5694 5697 5703 5713 5717 5717
5641 5638 5637 5635 5633 5634 5634 5633 5633 5635 5635 5637 5638 5641 5641 5642 5643 5644 5645 5646 5647 5649 5655 5651 5657 5659 5660 5660 5662 5662 5662 5663 5660 5659 5654 5653 5653 5664 5669 5672 5679 5685 5692 5695 5702 5709 5710
5628 5627 5623 5622 5620 5618 5618 5618 5619 5620 5620 5622 5624 5627 5630 5629 5631 5632 5632 5635 5636 5639 5642 5644 5647 5649 5650 5651 5653 5652 5653 5652 5652 5649 5645 5642 5646 5656 5657 5660 5668 5677 5684 5691 5694 5700 5703
5614 5612 5609 5606 5604 5602 5601 5601 5602 5602 5603 5606 5609 5612 5615 5615 5621 5619 5621 5625 5625 5628 5630 5634 5638 5639 5642 5642 5644 5644 5644 5644 5645 5640 5637 5632 5638 5643 5647 5652 5660 5668 5678 5683 5688 5693 5695
5599 5596 5592 5589 5587 5585 5583 5582 5583 5583 5585 5588 5592 5596 5600 5601 5606 5607 5612 5613 5616 5620 5621 5621 5627 5631 5632 5634 5633 5637 5635 5636 5635 5633 5631 5627 5631 5634 5638 5646 5653 5662 5668 5671 5680 5684 5688
5584 5579 5574 5570 5566 5563 5562 5562 5562 5564 5567 5571 5575 5580 5586 5587 5592 5595 5599 5602 5606 5611 5611 5610 5617 5621 5624 5625 5625 5624 5627 5627 5628 5626 5622 5621 5623 5625 5635 5639 5644 5653 5659 5663 5668 5674 5677
5568 5562 5556 5550 5546 5543 5541 5540 5541 5544 5548 5552 5557 5563 5569 5574 5578 5583 5585 5590 5595 5599 5605 5606 5606 5614 5616 5617 5616 5613 5619 5620 5619 5617 5616 5615 5616 5616 5623 5628 5635 5642 5652 5657 5661 5663 5670
5551 5542 5534 5529 5526 5524 5523 5522 5523 5525 5529 5533 5538 5545 5552 5560 5563 5569 5572 5578 5581 5592 5597 5597 5599 5605 5608 5608 5608 5606 5609 5612 5611 5610 5607 5608 5608 5611 5616 5622 5631 5634 5644 5648 5653 5662 5670
5534 5526 5521 5517 5513 5511 5509 5508 5507 5509 5511 5517 5521 5529 5538 5546 5549 5552 5558 5563 5576 5583 5585 5586 5589 5597 5599 5600 5599 5601 5600 5603 5605 5604 5604 5602 5600 5603 5609 5615 5623 5630 5633 5646 5655 5659 5663
5519 5512 5508 5504 5501 5498 5496 5496 5495 5495 5494 5499 5506 5513 5525 5530 5534 5536 5542 5555 5564 5568 5571 5577 5581 5586 5589 5594 5590 5593 5594 5595 5597 5597 5598 5600 5597 5599 5604 5609 5614 5622 5636 5639 5643 5649 5655
5504 5498 5494 5490 5486 5483 5481 5479 5478 5480 5481 5482 5489 5497 5512 5515 5516 5520 5534 5546 5551 5555 5561 5567 5572 5576 5578 5582 5582 5585 5588 5588 5590 5590 5592 5593 5594 5599 5599 5602 5611 5616 5621 5627 5636 5644 5651
5490 5484 5480 5474 5469 5466 5464 5462 5462 5462 5460 5464 5473 5485 5496 5502 5504 5513 5526 5535 5538 5544 5549 5556 5561 5565 5567 5571 5571 5575 5579 5580 5583 5584 5586 5587 5589 5591 5596 5596 5603 5609 5617 5621 5629 5638 5642
5476 5471 5465 5459 5452 5450 5449 5447 5446 5445 5446 5455 5460 5475 5485 5492 5496 5506 5516 5522 5527 5534 5540 5545 5550 5554 5557 5561 5563 5565 5569 5572 5574 5576 5580 5583 5586 5585 5591 5594 5597 5600 5609 5618 5622 5629 5634
5464 5459 5454 5447 5441 5438 5437 5434 5432 5432 5439 5450 5455 5464 5475 5483 5491 5497 5505 5512 5519 5525 5531 5536 5540 5544 5547 5551 5553 5558 5562 5564 5567 5569 5573 5577 5581 5582 5586 5589 5591 5597 5603 5611 5617 5621 5629
5455 5449 5443 5437 5432 5428 5426 5424 5424 5427 5433 5441 5447 5460 5468 5477 5485 5491 5497 5504 5510 5516 5522 5526 5530 5534 5537 5539 5542 5546 5552 5557 5558 5562 5566 5570 5574 5577 5579 5582 5588 5593 5597 5604 5609 5617 5623
5445 5440 5433 5429 5423 5420 5417 5415 5419 5423 5428 5434 5443 5454 5461 5468 5476 5483 5489 5497 5502 5508 5513 5517 5521 5525 5528 5530 5533 5537 5540 5546 5550 5553 5559 5564 5568 5572 5574 5580 5585 5589 5593 5598 5604 5611 5615
5436 5432 5427 5422 5417 5413 5410 5409 5413 5419 5424 5431 5440 5448 5454 5463 5470 5477 5484 5490 5496 5500 5506 5510 5514 5517 5520 5522 5525 5528 5532 5537 5540 5546 5553 5558 5563 5568 5570 5573 5578 5584 5587 5594 5598 5602 5609
5428 5425 5421 5417 5413 5410 5406 5405 5409 5415 5421 5429 5438 5443 5450 5459 5464 5471 5478 5483 5488 5493 5498 5501 5505 5511 5514 5516 5520 5521 5525 5528 5532 5536 5544 5552 5558 5563 5567 5570 5576 5582 5583 5586 5590 5596 5602
5420 5417 5416 5414 5410 5409 5408 5408 5411 5415 5420 5427 5434 5441 5447 5453 5460 5466 5471 5476 5481 5486 5491 5496 5501 5507 5509 5512 5513 5515 5520 5521 5525 5530 5538 5547 5552 5558 5563 5566 5572 5575 5578 5582 5584 5591 5596
5413 5411 5410 5410 5408 5407 5409 5410 5412 5415 5420 5426 5432 5437 5442 5448 5456 5460 5464 5469 5475 5482 5487 5492 5497 5503 5504 5507 5510 5512 5515 5520 5523 5526 5532 5538 5545 5553 5560 5564 5567 5571 5574 5578 5581 5586 5590
5408 5407 5406 5406 5405 5406 5406 5408 5411 5414 5418 5424 5430 5434 5438 5444 5448 5453 5458 5464 5470 5476 5482 5487 5493 5497 5500 5503 5507 5510 5513 5518 5521 5524 5529 5533 5539 5546 5551 5558 5562 5566 5569 5573 5576 5579 5581
5404 5404 5404 5403 5404 5404 5405 5406 5409 5412 5417 5422 5429 5431 5436 5442 5444 5449 5452 5457 5465 5474 5480 5487 5490 5495 5499 5503 5507 5508 5511 5515 5519 5523 5525 5529 5535 5541 5546 5551 5558 5563 5565 5567 5568 5570 5574
5400 5401 5402 5402 5402 5403 5404 5405 5407 5411 5415 5420 5424 5428 5432 5437 5442 5445 5448 5454 5461 5468 5477 5484 5489 5493 5497 5502 5505 5507 5510 5513 5518 5521 5524 5529 5533 5538 5544 5549 5552 5554 5558 5560 5560 5563 5567
Wind_Speed
59 52 48 49 48 50 54 52 51 48 46 47 48 49 49 49 47 46 46 46 45 42 44 45 42 42 44 41 33 42 41 41 39 38 40 42 47 47 47 43 39 39 36 32 35 34 32
55 55 51 51 52 52 53 53 51 50 49 49 50 50 50 49 48 48 46 46 45 44 43 43 43 43 44 36 39 39 37 37 37 38 37 45 46 47 45 45 43 37 35 34 36 35 32
54 55 54 54 53 52 55 55 56 55 51 50 51 52 52 50 48 46 46 48 47 42 43 43 44 45 44 35 39 37 35 34 35 38 42 44 47 51 47 47 41 37 39 37 36 33 29
54 55 55 53 55 56 56 56 57 57 55 51 51 50 49 51 49 46 44 45 45 43 43 44 46 44 40 37 34 35 36 33 29 35 41 48 48 53 55 49 46 43 38 36 28 29 27
52 53 55 56 57 56 57 56 56 54 54 52 51 50 49 47 45 43 43 45 44 42 42 42 44 43 41 37 37 36 36 32 37 36 40 43 49 51 59 51 49 44 37 34 26 28 25
54 53 54 55 57 57 57 57 55 52 49 50 49 49 48 47 46 44 42 43 44 41 41 42 44 44 41 40 39 35 36 35 37 39 44 39 47 49 53 45 47 39 37 29 25 20 20
51 53 53 53 54 54 55 56 55 53 52 50 50 48 47 47 46 45 44 42 44 43 40 42 43 41 40 41 39 35 38 35 37 44 43 44 46 50 45 41 41 43 38 27 15 15 20
53 54 56 57 57 57 58 58 56 56 56 53 52 51 48 49 48 47 47 43 42 46 45 44 40 41 42 39 38 37 40 40 41 42 43 45 47 44 40 53 45 43 40 37 20 23 19
55 56 58 60 60 62 62 61 61 59 56 56 55 54 52 52 49 48 46 46 44 43 45 41 41 41 41 38 38 38 39 39 38 38 42 37 35 39 48 49 48 44 44 38 31 25 19
58 61 62 63 65 66 68 68 66 65 61 60 56 54 52 52 51 47 48 45 45 43 44 44 41 42 39 37 36 37 37 39 33 37 36 34 29 41 44 55 50 48 45 36 31 30 28
62 65 67 69 69 69 71 71 70 69 68 65 60 56 52 52 51 47 48 46 43 42 41 45 45 40 37 33 33 33 31 36 31 28 31 32 32 38 44 51 50 47 42 32 28 36 32
64 67 70 72 75 75 73 71 71 70 68 67 64 59 54 53 50 49 44 44 43 40 42 43 41 37 32 31 32 36 31 33 27 25 27 30 38 42 43 47 56 52 39 38 37 36 38
65 69 71 71 71 70 69 66 66 64 64 64 62 58 54 51 49 46 44 42 43 42 37 33 40 34 30 28 30 37 29 26 28 27 25 28 35 44 42 44 55 56 41 37 41 42 39
67 68 63 56 55 56 57 58 59 58 56 56 58 57 52 48 47 45 44 43 45 41 37 37 39 35 30 28 29 32 30 25 27 27 22 30 23 41 42 38 50 57 47 44 37 31 29
65 60 50 48 45 44 44 46 49 52 56 53 54 52 50 47 46 46 45 46 41 38 37 39 40 34 32 28 32 27 31 27 26 25 20 26 23 29 39 36 45 53 49 42 18 29 24
64 54 52 51 51 50 49 50 47 45 49 53 52 52 46 46 47 47 47 44 40 40 42 39 36 35 33 23 27 29 24 21 21 22 21 18 18 26 32 33 40 51 42 39 33 25 28
63 51 51 54 54 52 54 53 51 50 48 51 51 52 44 45 46 48 45 40 39 39 37 37 38 36 34 31 32 31 28 25 24 25 21 20 21 17 25 39 39 44 47 48 44 37 23
55 49 52 54 54 56 55 50 48 50 53 46 49 48 46 43 46 45 40 38 38 37 38 37 39 38 35 33 36 33 33 28 28 27 22 22 21 16 23 31 35 41 43 45 42 44 37
50 49 51 50 48 44 43 44 46 44 39 27 42 43 42 31 39 38 37 37 37 36 36 37 38 36 35 33 36 36 33 25 28 30 23 23 22 18 22 26 31 37 38 45 46 37 41
48 47 45 48 42 38 38 40 37 29 29 28 38 40 39 32 31 32 35 35 35 35 35 36 36 34 35 34 37 35 17 26 29 31 27 28 20 15 25 22 24 24 33 47 40 43 35
47 44 46 43 39 33 35 32 20 19 30 27 34 33 28 34 32 31 32 32 32 32 31 31 31 29 31 31 33 32 31 26 32 34 32 32 23 20 27 25 24 22 23 37 44 41 31
43 43 41 39 32 29 27 25 22 23 30 41 37 32 32 31 31 31 30 29 29 27 26 25 26 26 29 32 31 25 29 31 35 37 34 28 28 16 23 24 21 26 25 35 31 27 31
40 37 34 31 24 24 22 20 22 29 31 33 32 31 33 31 30 29 25 27 27 26 25 25 22 23 23 27 32 32 36 37 39 39 39 31 27 19 11 28 27 24 24 34 37 38 35
35 34 30 25 19 16 14 11 19 29 30 30 29 30 31 29 30 28 24 20 25 27 28 28 29 24 24 27 27 30 32 38 41 45 43 33 28 27 13 19 24 29 35 34 35 33 33
34 31 24 20 13 9 9 11 20 26 28 28 26 27 28 27 27 25 26 27 22 23 25 25 23 19 21 31 27 26 27 30 42 45 43 44 31 23 24 24 21 16 12 22 28 24 16
25 23 19 16 13 7 12 12 19 23 24 24 25 27 27 26 24 25 27 29 21 16 15 19 23 22 24 24 22 20 20 21 22 40 43 42 41 34 20 25 26 22 23 14 10 22 29
16 13 14 15 11 12 14 14 16 20 22 22 21 23 25 23 25 27 20 22 24 25 20 21 28 25 18 16 19 17 17 13 16 21 26 40 44 40 33 22 27 23 26 31 33 31 38
11 10 9 10 12 9 13 14 15 16 17 18 19 23 23 20 24 19 23 23 29 24 22 21 20 22 23 17 15 14 17 18 20 17 17 26 38 41 35 32 28 24 24 34 32 23 24
14 12 10 9 8 10 10 12 16 17 16 20 21 20 21 27 22 19 27 26 32 34 29 26 14 24 18 17 13 15 18 16 15 21 15 16 21 29 30 29 25 26 30 34 32 30 31
Wind_Direction
274 277 277 275 272 269 270 269 267 267 270 272 269 267 266 271 266 262 263 264 263 265 267 271 273 277 279 281 282 283 283 281 281 278 274 264 255 251 249 245 242 239 239 237 241 241 245
271 273 273 271 273 274 271 267 269 268 268 269 269 267 267 263 263 262 263 263 264 266 269 274 276 277 279 283 278 278 278 279 276 278 274 264 258 253 245 240 237 234 236 236 240 240 245
269 270 272 273 273 271 272 273 274 273 269 268 266 264 267 264 260 260 262 262 263 268 273 275 276 277 277 278 277 276 275 281 280 275 275 270 255 251 242 240 236 234 233 230 237 243 246
270 270 270 269 271 273 271 269 272 275 273 269 265 263 261 261 261 262 266 268 267 273 276 276 278 279 279 276 274 275 283 285 285 287 283 272 253 247 250 238 232 230 232 233 236 244 246
272 274 275 276 275 275 274 274 272 269 270 269 266 264 263 263 262 264 266 268 269 274 278 279 279 281 279 275 273 276 280 286 280 287 304 267 254 243 237 235 234 232 228 232 231 241 252
279 277 275 276 277 276 275 275 273 270 267 266 265 265 265 264 266 266 266 268 269 273 278 279 278 278 277 278 276 276 277 279 288 290 300 281 247 242 244 226 233 233 232 235 231 224 262
281 282 281 280 279 277 276 275 273 273 271 268 267 266 268 268 266 266 266 266 268 267 274 277 279 273 277 276 274 276 277 280 289 295 294 290 247 243 233 224 228 230 228 217 233 247 237
285 284 284 284 282 281 279 277 276 275 274 273 272 270 269 268 268 267 266 266 267 271 273 277 274 275 274 273 274 274 277 284 290 294 293 290 249 240 255 227 222 226 227 214 203 237 246
286 285 285 283 283 282 281 279 277 275 272 272 272 270 269 268 267 267 266 266 266 267 270 272 272 274 276 275 272 273 279 284 288 289 301 280 246 225 239 216 217 221 223 216 207 217 231
290 288 287 285 284 282 279 278 277 276 274 272 270 269 267 265 265 265 264 264 266 268 270 271 270 274 275 274 271 270 276 281 286 289 302 271 241 227 241 224 216 219 223 208 221 219 216
293 291 289 287 284 281 279 277 274 273 272 271 269 268 266 264 264 261 263 263 264 264 268 273 271 274 274 272 272 268 273 278 285 289 299 269 234 231 234 223 214 217 219 202 230 226 222
295 293 291 288 285 282 279 275 271 268 267 266 265 264 264 263 261 260 259 259 260 262 266 266 269 271 272 271 270 268 276 280 282 287 287 290 240 233 232 241 220 213 207 207 209 220 226
299 297 296 289 284 280 278 277 275 271 267 264 261 259 258 259 258 257 256 255 256 254 258 264 265 269 269 269 271 269 271 280 285 291 287 301 244 239 234 246 228 213 203 210 214 217 227
305 306 301 293 286 283 280 277 274 272 267 261 259 256 252 253 254 252 250 250 251 253 252 258 265 265 267 268 268 277 274 282 283 292 298 303 253 235 234 236 226 215 207 205 216 222 232
310 306 295 297 295 291 289 287 283 273 265 262 253 252 249 247 248 248 246 245 250 250 248 249 257 262 262 267 268 273 278 281 279 290 294 302 288 244 230 235 234 223 210 204 194 209 221
311 297 293 294 291 286 286 284 280 280 272 257 254 248 244 243 243 243 242 245 244 246 249 250 252 256 257 253 264 269 272 280 283 288 292 292 281 258 234 230 237 232 208 195 201 208 199
309 292 291 292 290 285 287 285 277 276 276 261 247 245 241 239 239 239 241 242 242 241 245 250 251 251 252 255 254 261 265 259 268 279 280 274 273 244 234 229 223 228 207 200 200 199 186
304 294 293 293 290 286 285 282 278 280 279 251 239 237 236 238 238 238 239 238 236 237 242 244 247 250 253 256 262 263 264 260 260 265 268 266 264 246 234 224 217 227 219 200 202 205 196
300 299 300 302 293 285 282 281 281 278 252 232 235 228 226 234 237 234 232 232 234 234 239 243 245 249 252 254 259 262 260 255 254 259 256 249 264 253 216 208 204 214 214 218 204 201 207
301 301 303 305 297 287 283 283 288 235 229 204 232 221 222 223 229 227 229 230 234 235 239 243 246 248 252 253 257 258 250 246 249 250 248 237 254 255 209 181 206 218 208 212 210 206 209
302 302 304 303 299 287 286 283 261 243 201 200 226 212 217 225 231 229 228 231 233 237 238 243 245 250 258 261 260 258 224 227 247 241 237 239 247 261 204 164 181 203 207 206 201 197 215
301 303 302 302 297 293 290 281 241 215 209 206 211 207 214 216 221 225 225 227 234 236 236 241 247 253 253 255 254 238 246 223 238 239 223 232 234 250 198 206 174 211 215 195 196 206 215
298 298 300 305 298 301 290 263 231 207 211 211 205 208 215 214 219 224 228 228 232 237 238 234 233 251 258 254 250 242 237 229 233 229 216 213 229 226 206 218 205 190 196 197 202 211 210
294 297 299 307 305 312 302 259 212 204 205 207 207 213 216 213 221 223 220 234 232 232 228 234 234 240 248 262 263 237 243 235 231 226 213 198 227 217 208 202 214 223 225 194 193 190 205
291 290 288 298 302 326 312 238 206 204 205 208 208 215 220 220 222 224 226 227 231 233 229 227 231 236 248 240 247 236 232 233 232 228 223 215 191 190 200 213 227 185 165 203 197 189 198
291 285 272 285 272 292 287 240 218 213 213 211 210 215 220 222 222 221 224 222 209 215 223 216 228 208 234 241 240 237 237 242 242 230 228 227 217 198 203 201 200 218 224 212 215 204 172
283 300 271 270 272 254 236 232 226 220 218 215 213 217 221 214 218 215 215 225 211 193 191 202 212 217 242 212 218 225 214 210 230 236 236 230 226 216 223 219 204 190 197 193 195 184 198
260 274 291 271 259 249 237 228 223 226 218 209 211 216 218 204 210 214 202 191 186 180 182 193 220 222 212 225 204 210 208 204 209 222 242 237 233 229 233 235 227 218 225 214 203 218 204
257 262 267 269 271 245 236 227 224 220 212 204 211 216 207 193 205 207 189 179 173 170 187 186 203 198 214 188 209 200 207 196 204 219 234 233 230 235 243 248 237 231 236 241 243 245 243